Location: Girdwood
(60.9430°N, 149.1660°W)
Time: 10:06:52
(UTC-08:00)

Amateur Radio Satellites - All Passes

Search period start: 31 March 2015 09:36
Search period end: 01 April 2015 09:36
Location: Girdwood, 60.9430°N, 149.1660°W

Satellite Date Start Highest point End Downlink Frequencies (MHz)
Time Altitude Azimuth
JAS-2 31 Mar 09:37:59 09:44:15 27° 326° (NW) 09:50:18 435.910
AAUSAT CUBESAT 2 31 Mar 09:40:14 09:41:44 12° 79° (E) 09:43:23 437.432
BRITE-PL 31 Mar 09:43:30 09:47:00 26° 92° (E) 09:50:37 437.365/2234.400
HO-68 31 Mar 09:43:32 09:49:29 27° 86° (E) 09:55:32 435.675
POPSAT HIP 1 31 Mar 09:44:38 09:47:13 16° 45° (NE) 09:49:52 437.405
SEEDS 31 Mar 09:49:06 09:51:58 18° 85° (E) 09:54:56 437.485
NANOSAT C BR1 31 Mar 09:53:58 09:56:47 18° 48° (NE) 09:59:43 145.865
O/OREOS (USA 219) 31 Mar 09:55:38 09:59:11 21° 358° (N) 10:02:42 437.305
DOVE 4 31 Mar 09:57:38 10:00:45 20° 87° (E) 10:04:02 437.250
POLYITAN 1 31 Mar 09:59:57 10:02:59 20° 49° (NE) 10:06:05 437.675
CUSAT 1 31 Mar 10:02:58 10:05:54 20° 267° (W) 10:09:19 437.405
AO-7 31 Mar 10:05:46 10:12:42 31° 335° (NNW) 10:19:35 29.400- 29.500
COMPASS 1 31 Mar 10:08:02 10:11:15 21° 87° (E) 10:14:32 437.405
GOMX 1 31 Mar 10:18:57 10:22:50 35° 96° (E) 10:26:53 467.674
Oscar 11 31 Mar 10:21:10 10:23:37 15° 82° (E) 10:26:11 145.826/435.025
UNISAT 6 31 Mar 10:22:53 10:26:54 39° 60° (ENE) 10:31:02 437.425
GONETS M04 31 Mar 10:25:55 10:31:53 20° 294° (WNW) 10:37:35
TIGRISAT 31 Mar 10:31:59 10:36:04 43° 62° (ENE) 10:40:17 435.000
QB50P1 31 Mar 10:34:56 10:38:38 31° 57° (ENE) 10:42:23 145.935-145.965
DUCHIFAT 1 31 Mar 10:35:31 10:39:12 30° 57° (ENE) 10:42:55 145.980
FUNcube-1 31 Mar 10:36:28 10:38:15 12° 80° (E) 10:40:11 145.935
DELFI C3 31 Mar 10:40:49 10:43:24 16° 84° (E) 10:46:04 145.870
CANX-2 31 Mar 10:44:36 10:48:52 52° 100° (E) 10:53:06 2200.000
UWE-3 31 Mar 10:45:52 10:48:43 17° 85° (E) 10:51:43 435.000/436.395/437.385
ZACube-1 31 Mar 10:49:38 10:52:15 16° 83° (E) 10:55:01 437.345
QB50P2 31 Mar 10:50:16 10:54:12 39° 61° (ENE) 10:58:10 145.880/145.840
CUBEBUG 2 31 Mar 10:55:14 10:58:40 22° 89° (E) 11:02:15 437.445
CINEMA 3 31 Mar 10:57:51 11:01:50 34° 95° (E) 11:05:57 145.822/145.860
CUTE-I 31 Mar 10:58:04 11:02:18 24° 315° (NW) 11:06:27 437.470
CUTE 1.7 + AOD 2 31 Mar 10:58:12 11:02:30 61° 102° (ESE) 11:06:48 437.475
Cubesat XI-IV 31 Mar 10:58:56 11:03:09 24° 316° (NW) 11:07:18 437.490
ANTELSAT 31 Mar 11:03:12 11:07:31 73° 69° (ENE) 11:11:57 437.575/2403.000
BUGSAT 1 31 Mar 11:05:54 11:09:44 39° 61° (ENE) 11:13:34 437.445
BEESAT 2 31 Mar 11:06:21 11:08:39 15° 118° (ESE) 11:11:04 435.950
AAUSAT CUBESAT 2 31 Mar 11:14:10 11:18:23 56° 101° (E) 11:22:35 437.432
POPSAT HIP 1 31 Mar 11:18:16 11:22:25 60° 66° (ENE) 11:26:36 437.405
BRITE-PL 31 Mar 11:21:50 11:25:57 61° 293° (WNW) 11:30:09 437.365/2234.400
JAS-2 31 Mar 11:22:13 11:27:00 18° 351° (N) 11:31:43 435.910
HUMSAT D 31 Mar 11:22:52 11:25:34 17° 85° (E) 11:28:23 437.325/437.525
SEEDS 31 Mar 11:24:09 11:28:29 85° 104° (ESE) 11:32:48 437.485
NANOSAT C BR1 31 Mar 11:27:52 11:32:04 70° 69° (ENE) 11:36:17 145.865
UKube-1 31 Mar 11:28:01 11:31:20 21° 89° (E) 11:34:43 .
HO-68 31 Mar 11:31:04 11:38:22 82° 110° (ESE) 11:45:36 435.675
POLYITAN 1 31 Mar 11:34:10 11:38:23 79° 71° (ENE) 11:42:38 437.675
DOVE 4 31 Mar 11:34:52 11:39:08 85° 289° (WNW) 11:43:35 437.250
O/OREOS (USA 219) 31 Mar 11:36:00 11:39:58 27° 23° (NNE) 11:43:55 437.305
ITAMSAT 1 31 Mar 11:37:12 11:38:46 11° 24° (NNE) 11:40:26 435.822/435.867
ESTCUBE 1 31 Mar 11:38:30 11:39:16 10° 77° (ENE) 11:40:13 437.505/2401.250
BEESAT 3 31 Mar 11:39:16 11:42:42 26° 127° (SE) 11:46:12 437.485
DX 1 31 Mar 11:41:03 11:44:47 27° 92° (E) 11:48:32 434.975-435.025
COMPASS 1 31 Mar 11:43:13 11:47:30 81° 289° (WNW) 11:51:46 437.405
50 SAT 31 Mar 11:43:19 11:45:55 17° 86° (E) 11:48:35 437.505
Oscar 11 31 Mar 11:56:18 12:00:41 69° 104° (ESE) 12:05:03 145.826/435.025
AO-7 31 Mar 11:57:06 12:03:21 25° 2° (N) 12:09:35 29.400- 29.500
GOMX 1 31 Mar 11:57:08 12:01:10 46° 296° (WNW) 12:05:20 467.674
UNISAT 6 31 Mar 11:59:32 12:03:43 45° 262° (W) 12:07:58 437.425
Oscar 19 31 Mar 12:02:35 12:06:20 21° 43° (NE) 12:10:09 437.125/150
TIGRISAT 31 Mar 12:08:52 12:12:56 39° 263° (W) 12:17:05 435.000
QB50P1 31 Mar 12:10:12 12:14:22 57° 258° (WSW) 12:18:33 145.935-145.965
DUCHIFAT 1 31 Mar 12:10:43 12:14:52 57° 257° (WSW) 12:19:02 145.980
FUNcube-1 31 Mar 12:11:17 12:15:35 58° 102° (ESE) 12:19:58 145.935
DELFI C3 31 Mar 12:15:08 12:19:17 82° 105° (ESE) 12:23:25 145.870
CANX-2 31 Mar 12:20:46 12:24:41 34° 301° (WNW) 12:28:35 2200.000
UWE-3 31 Mar 12:21:37 12:26:00 80° 106° (ESE) 12:30:29 435.000/436.395/437.385
CUBEBUG 1 31 Mar 12:23:46 12:26:56 20° 87° (E) 12:30:10 437.445
ZACube-1 31 Mar 12:25:04 12:29:26 74° 104° (ESE) 12:33:53 437.345
QB50P2 31 Mar 12:26:05 12:30:08 42° 262° (W) 12:34:12 145.880/145.840
AIST 2 31 Mar 12:29:59 12:33:35 27° 127° (SE) 12:37:15 435.215
VELOX 1 31 Mar 12:30:04 12:34:10 35° 96° (E) 12:38:14 145.980
CUBEBUG 2 31 Mar 12:31:31 12:35:54 78° 290° (WNW) 12:40:24 437.445
CUTE 1.7 + AOD 2 31 Mar 12:34:26 12:38:13 30° 303° (WNW) 12:41:58 437.475
CINEMA 3 31 Mar 12:35:02 12:39:14 50° 295° (WNW) 12:43:35 145.822/145.860
AISAT 31 Mar 12:35:45 12:39:55 39° 97° (E) 12:44:06 437.250
Gurwin Techsat 1B 31 Mar 12:36:59 12:40:17 17° 36° (NE) 12:43:41 435.225
CUTE-I 31 Mar 12:39:13 12:40:46 11° 339° (NNW) 12:42:14 437.470
Cubesat XI-IV 31 Mar 12:40:06 12:41:38 11° 339° (NNW) 12:43:05 437.490
ANTELSAT 31 Mar 12:41:18 12:44:50 23° 271° (W) 12:48:23 437.575/2403.000
BUGSAT 1 31 Mar 12:41:20 12:45:16 40° 262° (W) 12:49:09 437.445
BEESAT 2 31 Mar 12:42:00 12:46:03 53° 139° (SE) 12:50:09 435.950
AAUSAT CUBESAT 2 31 Mar 12:50:05 12:53:52 31° 302° (WNW) 12:57:35 437.432
POPSAT HIP 1 31 Mar 12:55:00 12:58:38 27° 268° (W) 13:02:16 437.405
HUMSAT D 31 Mar 12:57:48 13:02:04 81° 106° (ESE) 13:06:22 437.325/437.525
SEEDS 31 Mar 13:00:28 13:03:54 23° 307° (NW) 13:07:16 437.485
BRITE-PL 31 Mar 13:01:19 13:03:51 16° 314° (NW) 13:06:19 437.365/2234.400
UKube-1 31 Mar 13:03:42 13:08:03 80° 291° (WNW) 13:12:23 .
JAS-2 31 Mar 13:04:25 13:09:27 19° 17° (NNE) 13:14:35 435.910
NANOSAT C BR1 31 Mar 13:04:56 13:08:23 23° 270° (W) 13:11:46 145.865
POLYITAN 1 31 Mar 13:11:37 13:14:52 21° 272° (W) 13:18:04 437.675
ITAMSAT 1 31 Mar 13:12:33 13:16:47 26° 47° (NE) 13:21:04 435.822/435.867
ESTCUBE 1 31 Mar 13:12:58 13:17:23 47° 99° (E) 13:21:46 437.505/2401.250
DOVE 4 31 Mar 13:13:18 13:16:29 21° 309° (NW) 13:19:43 437.250
O/OREOS (USA 219) 31 Mar 13:15:33 13:20:09 68° 47° (NE) 13:24:42 437.305
BEESAT 3 31 Mar 13:16:12 13:20:22 85° 148° (SSE) 13:24:33 437.485
DX 1 31 Mar 13:17:05 13:21:25 63° 294° (WNW) 13:25:42 434.975-435.025
50 SAT 31 Mar 13:17:25 13:21:28 86° 106° (ESE) 13:25:32 437.505
HORYU 2 31 Mar 13:18:14 13:18:23 10° 31° (NNE) 13:18:40 437.375
HO-68 31 Mar 13:19:05 13:25:42 40° 314° (NW) 13:32:16 435.675
COMPASS 1 31 Mar 13:19:32 13:22:41 20° 310° (NW) 13:25:47 437.405
YUBILEINY 31 Mar 13:32:25 13:39:43 31° 77° (ENE) 13:47:10 435.215
Oscar 11 31 Mar 13:32:51 13:36:35 28° 305° (NW) 13:40:17 145.826/435.025
GOMX 1 31 Mar 13:36:31 13:38:31 13° 318° (NW) 13:40:27 467.674
Oscar 19 31 Mar 13:39:53 13:44:57 65° 65° (ENE) 13:50:05 437.125/150
TISAT 1 31 Mar 13:40:34 13:44:02 25° 91° (E) 13:47:33 437.305
AO-7 31 Mar 13:47:01 13:54:03 33° 29° (NNE) 14:01:10 29.400- 29.500
FUNcube-1 31 Mar 13:47:55 13:51:47 32° 302° (WNW) 13:55:41 145.935
QB50P1 31 Mar 13:49:39 13:51:16 12° 280° (W) 13:52:43 145.935-145.965
DUCHIFAT 1 31 Mar 13:50:06 13:51:43 12° 280° (W) 13:53:11 145.980
DELFI C3 31 Mar 13:50:48 13:54:05 23° 307° (NW) 13:57:17 145.870
SWISSCUBE 31 Mar 13:56:36 13:58:01 11° 77° (ENE) 13:59:37 437.505
CANX-2 31 Mar 13:58:22 13:59:34 11° 323° (NW) 14:00:40 2200.000
UWE-3 31 Mar 13:58:38 14:02:12 25° 306° (NW) 14:05:48 435.000/436.395/437.385
BEESAT 31 Mar 13:59:13 14:00:31 11° 77° (ENE) 14:02:02 436.000
SPROUT 31 Mar 13:59:22 14:03:24 39° 97° (E) 14:07:27 437.525
CUBEBUG 1 31 Mar 13:59:33 14:03:56 87° 289° (WNW) 14:08:17 437.445
ZACube-1 31 Mar 14:01:52 14:05:31 26° 305° (NW) 14:09:11 437.345
VELOX 1 31 Mar 14:06:37 14:10:55 49° 297° (WNW) 14:15:10 145.980
AIST 2 31 Mar 14:07:29 14:11:48 85° 149° (SSE) 14:16:09 435.215
CUBEBUG 2 31 Mar 14:08:53 14:12:05 20° 310° (NW) 14:15:19 437.445
AISAT 31 Mar 14:12:25 14:16:38 44° 298° (WNW) 14:20:50 437.250
CINEMA 3 31 Mar 14:13:17 14:15:41 15° 316° (NW) 14:18:03 145.822/145.860
Gurwin Techsat 1B 31 Mar 14:14:11 14:19:14 46° 59° (ENE) 14:24:20 435.225
BEESAT 2 31 Mar 14:20:05 14:24:14 62° 341° (NNW) 14:28:24 435.950
AIST 1 31 Mar 14:32:58 14:36:32 24° 56° (NE) 14:40:08
HUMSAT D 31 Mar 14:34:03 14:37:29 24° 307° (NW) 14:40:53 437.325/437.525
UKube-1 31 Mar 14:40:25 14:43:41 21° 312° (NW) 14:46:54 .
JAS-2 31 Mar 14:45:57 14:52:26 33° 42° (NE) 14:59:14 435.910
ITUPSAT 1 31 Mar 14:46:03 14:49:51 23° 88° (E) 14:53:41 437.325
ESTCUBE 1 31 Mar 14:50:00 14:54:15 39° 301° (WNW) 14:58:26 437.505/2401.250
HORYU 2 31 Mar 14:50:02 14:53:48 28° 53° (NE) 14:57:38 437.375
ITAMSAT 1 31 Mar 14:50:32 14:55:46 83° 69° (ENE) 15:01:02 435.822/435.867
50 SAT 31 Mar 14:52:52 14:55:59 21° 307° (NW) 14:59:03 437.505
DX 1 31 Mar 14:54:04 14:56:59 18° 315° (NW) 14:59:50 434.975-435.025
BEESAT 3 31 Mar 14:54:37 14:58:42 51° 351° (N) 15:02:46 437.485
O/OREOS (USA 219) 31 Mar 14:55:17 14:59:20 31° 249° (WSW) 15:03:17 437.305
PCSat 31 Mar 15:06:03 15:09:24 17° 109° (ESE) 15:12:54 145.827
HO-68 31 Mar 15:06:42 15:11:52 22° 339° (NNW) 15:16:57 435.675
TISAT 1 31 Mar 15:16:03 15:20:15 66° 292° (WNW) 15:24:25 437.305
Oscar 19 31 Mar 15:20:05 15:24:43 33° 267° (W) 15:29:20 437.125/150
FUNcube-1 31 Mar 15:26:14 15:27:02 10° 324° (NW) 15:27:44 145.935
YUBILEINY 31 Mar 15:26:43 15:35:34 85° 103° (ESE) 15:44:29 435.215
STARS 31 Mar 15:32:09 15:33:10 11° 78° (ENE) 15:34:21 437.465
SWISSCUBE 31 Mar 15:32:29 15:37:11 49° 100° (E) 15:41:50 437.505
BEESAT 31 Mar 15:35:00 15:39:41 48° 100° (E) 15:44:20 436.000
SPROUT 31 Mar 15:35:31 15:39:35 43° 298° (WNW) 15:43:39 437.525
CUBEBUG 1 31 Mar 15:36:29 15:39:50 22° 310° (NW) 15:43:08 437.445
AO-7 31 Mar 15:37:36 15:45:46 66° 55° (NE) 15:53:59 29.400- 29.500
VELOX 1 31 Mar 15:44:07 15:46:39 15° 319° (NW) 15:49:06 145.980
AIST 2 31 Mar 15:46:26 15:50:41 52° 351° (N) 15:54:54 435.215
AISAT 31 Mar 15:50:02 15:52:20 14° 320° (NW) 15:54:33 437.250
CUTE-I 31 Mar 15:54:05 15:56:39 14° 29° (NNE) 15:59:19 437.470
Gurwin Techsat 1B 31 Mar 15:54:06 15:59:16 50° 260° (W) 16:04:29 435.225
Cubesat XI-IV 31 Mar 15:54:56 15:57:34 14° 29° (NNE) 16:00:18 437.490
BEESAT 2 31 Mar 15:58:46 16:02:51 49° 4° (N) 16:06:56 435.950
AIST 1 31 Mar 16:10:22 16:14:43 74° 260° (W) 16:19:01
ITUPSAT 1 31 Mar 16:23:31 16:28:23 84° 290° (WNW) 16:33:12 437.325
HORYU 2 31 Mar 16:25:42 16:30:10 73° 255° (WSW) 16:34:40 437.375
ESTCUBE 1 31 Mar 16:28:01 16:30:07 13° 322° (NW) 16:32:07 437.505/2401.250
JAS-2 31 Mar 16:29:09 16:36:33 75° 65° (ENE) 16:44:28 435.910
ITAMSAT 1 31 Mar 16:31:35 16:35:56 25° 271° (W) 16:40:13 435.822/435.867
BEESAT 3 31 Mar 16:33:08 16:37:15 55° 14° (NNE) 16:41:20 437.485
KKS-1 31 Mar 16:40:22 16:44:39 44° 99° (E) 16:48:56 437.445
PCSat 31 Mar 16:46:35 16:51:53 57° 131° (SE) 16:57:14 145.827
TISAT 1 31 Mar 16:52:37 16:55:25 17° 313° (NW) 16:58:08 437.305
HO-68 31 Mar 16:52:47 16:57:19 18° 6° (N) 17:01:54 435.675
MOZHAYETS 4 31 Mar 16:59:02 16:59:25 10° 75° (ENE) 17:00:00
STARS 31 Mar 17:06:28 17:10:47 50° 101° (E) 17:15:05 437.465
SWISSCUBE 31 Mar 17:10:31 17:15:02 41° 301° (WNW) 17:19:31 437.505
SPROUT 31 Mar 17:12:45 17:14:47 13° 319° (NW) 17:16:44 437.525
BEESAT 31 Mar 17:13:00 17:17:33 42° 301° (WNW) 17:22:02 436.000
YUBILEINY 31 Mar 17:25:15 17:33:29 40° 309° (NW) 17:41:42 435.215
AIST 2 31 Mar 17:25:31 17:29:47 57° 14° (NNE) 17:34:01 435.215
CUTE-I 31 Mar 17:30:42 17:35:25 33° 52° (NE) 17:40:11 437.470
AO-7 31 Mar 17:30:54 17:38:59 52° 259° (W) 17:47:03 29.400- 29.500
Cubesat XI-IV 31 Mar 17:31:36 17:36:22 34° 52° (NE) 17:41:11 437.490
BEESAT 2 31 Mar 17:37:09 17:41:22 80° 27° (NNE) 17:45:33 435.950
Gurwin Techsat 1B 31 Mar 17:38:19 17:40:41 13° 284° (WNW) 17:42:51 435.225
AIST 1 31 Mar 17:49:11 17:51:42 15° 280° (W) 17:54:05
GONETS M04 31 Mar 17:55:24 17:59:05 14° 58° (ENE) 18:03:09
ITUPSAT 1 31 Mar 18:01:55 18:05:47 24° 312° (NW) 18:09:34 437.325
HORYU 2 31 Mar 18:04:53 18:07:41 16° 277° (W) 18:10:23 437.375
BEESAT 3 31 Mar 18:11:19 18:15:28 68° 217° (SW) 18:19:34 437.485
JAS-2 31 Mar 18:15:14 18:22:12 42° 270° (W) 18:29:34 435.910
KKS-1 31 Mar 18:17:08 18:21:20 41° 300° (WNW) 18:25:30 437.445
AUBIESAT-1 31 Mar 18:20:58 18:23:11 13° 86° (E) 18:25:32 437.475
PCSat 31 Mar 18:29:59 18:35:24 62° 334° (NNW) 18:40:50 145.827
MOZHAYETS 4 31 Mar 18:33:28 18:37:58 45° 98° (E) 18:42:27
HO-68 31 Mar 18:37:16 18:42:59 27° 32° (NNE) 18:48:47 435.675
STARS 31 Mar 18:43:08 18:47:11 36° 302° (WNW) 18:51:12 437.465
M-CUBED/EXP-1 PRIME 31 Mar 18:46:48 18:50:28 21° 94° (E) 18:54:12 437.505
SWISSCUBE 31 Mar 18:49:17 18:51:53 14° 323° (NW) 18:54:24 437.505
BEESAT 31 Mar 18:51:45 18:54:23 15° 323° (NW) 18:56:56 436.000
CUBESAT XI-V 31 Mar 18:52:17 18:53:52 12° 77° (ENE) 18:55:37 437.345
CUTE 1.7 + AOD 2 31 Mar 18:53:51 18:54:42 11° 37° (NE) 18:55:39 437.475
RS-15 31 Mar 18:55:48 19:03:21 23° 101° (E) 19:11:25 29.354- 29.394
AIST 2 31 Mar 19:04:15 19:08:33 68° 218° (SW) 19:12:47 435.215
CUTE-I 31 Mar 19:09:50 19:15:13 74° 254° (WSW) 19:20:37 437.470
Cubesat XI-IV 31 Mar 19:10:50 19:16:12 73° 254° (WSW) 19:21:37 437.490
BEESAT 2 31 Mar 19:15:29 19:19:17 34° 229° (SW) 19:23:02 435.950
SEEDS 31 Mar 19:17:56 19:19:48 13° 41° (NE) 19:21:46 437.485
YUBILEINY 31 Mar 19:27:00 19:33:26 21° 340° (NNW) 19:39:45 435.215
BRITE-PL 31 Mar 19:27:30 19:30:45 21° 52° (NE) 19:33:57 437.365/2234.400
SO-50 31 Mar 19:28:14 19:31:06 16° 117° (ESE) 19:34:09 436.795
AO-7 31 Mar 19:28:58 19:34:09 17° 285° (WNW) 19:39:02 29.400- 29.500
COMPASS 1 31 Mar 19:35:52 19:38:05 14° 44° (NE) 19:40:25 437.405
DOVE 4 31 Mar 19:37:54 19:40:19 15° 46° (NE) 19:42:49 437.250
GONETS M04 31 Mar 19:45:39 19:53:33 41° 84° (E) 20:01:36
BEESAT 3 31 Mar 19:49:55 19:52:57 20° 238° (WSW) 19:55:55 437.485
Oscar 11 31 Mar 19:52:21 19:54:05 12° 39° (NE) 19:55:53 145.826/435.025
AUBIESAT-1 31 Mar 19:54:20 19:59:06 53° 108° (ESE) 20:03:49 437.475
KKS-1 31 Mar 19:54:53 19:57:01 13° 322° (NW) 19:59:04 437.445
GOMX 1 31 Mar 20:00:25 20:03:53 25° 55° (NE) 20:07:20 467.674
JAS-2 31 Mar 20:06:03 20:09:44 14° 296° (WNW) 20:13:10 435.910
DELFI C3 31 Mar 20:06:12 20:07:29 11° 40° (NE) 20:08:53 145.870
FUNcube-1 31 Mar 20:09:31 20:10:01 10° 36° (NE) 20:10:37 145.935
PRISM 31 Mar 20:09:43 20:13:25 29° 94° (E) 20:17:07 437.425
MOZHAYETS 4 31 Mar 20:10:49 20:15:14 42° 300° (WNW) 20:19:37
CANX-2 31 Mar 20:12:23 20:16:03 29° 56° (NE) 20:19:48 2200.000
PCSat 31 Mar 20:14:22 20:19:36 44° 359° (N) 20:24:50 145.827
UWE-3 31 Mar 20:19:15 20:21:05 13° 41° (NE) 20:23:03 435.000/436.395/437.385
STARS 31 Mar 20:20:55 20:22:37 12° 323° (NW) 20:24:14 437.465
M-CUBED/EXP-1 PRIME 31 Mar 20:21:08 20:26:02 83° 114° (ESE) 20:30:54 437.505
ZACube-1 31 Mar 20:22:09 20:23:45 12° 40° (NE) 20:25:26 437.345
HO-68 31 Mar 20:22:36 20:29:36 59° 56° (NE) 20:36:41 435.675
CUTE 1.7 + AOD 2 31 Mar 20:25:43 20:29:32 33° 58° (ENE) 20:33:25 437.475
CUBESAT XI-V 31 Mar 20:27:57 20:32:32 52° 100° (E) 20:37:03 437.345
CUBEBUG 2 31 Mar 20:29:05 20:31:33 16° 45° (NE) 20:34:09 437.445
CINEMA 3 31 Mar 20:34:01 20:37:14 22° 52° (NE) 20:40:32 145.822/145.860
AISAT 31 Mar 20:36:10 20:36:16 10° 32° (NNE) 20:36:29 437.250
AAUSAT CUBESAT 2 31 Mar 20:40:05 20:43:45 30° 57° (ENE) 20:47:27 437.432
STRAND 1 31 Mar 20:41:22 20:46:12 40° 97° (E) 20:51:02 437.568
AIST 2 31 Mar 20:43:23 20:46:34 20° 238° (WSW) 20:49:38 435.215
SEEDS 31 Mar 20:50:41 20:54:42 42° 63° (ENE) 20:58:46 437.485
HUMSAT D 31 Mar 20:51:43 20:53:18 12° 40° (NE) 20:54:59 437.325/437.525
CUTE-I 31 Mar 20:52:25 20:56:17 19° 276° (W) 21:00:03 437.470
Cubesat XI-IV 31 Mar 20:53:29 20:57:19 19° 277° (W) 21:01:02 437.490
UKube-1 31 Mar 20:58:20 21:01:12 18° 45° (NE) 21:04:08 .
RS-15 31 Mar 21:02:53 21:13:25 59° 128° (SE) 21:24:21 29.354- 29.394
BRITE-PL 31 Mar 21:04:27 21:08:54 89° 68° (ENE) 21:13:09 437.365/2234.400
SO-50 31 Mar 21:06:10 21:10:48 54° 138° (SE) 21:15:36 436.795
50 SAT 31 Mar 21:07:18 21:08:23 11° 40° (NE) 21:09:35 437.505
COMPASS 1 31 Mar 21:08:54 21:12:59 50° 65° (ENE) 21:17:07 437.405
DX 1 31 Mar 21:11:38 21:14:55 21° 49° (NE) 21:18:14 434.975-435.025
ESTCUBE 1 31 Mar 21:13:18 21:14:45 11° 35° (NE) 21:16:18 437.505/2401.250
DOVE 4 31 Mar 21:13:18 21:17:26 59° 67° (ENE) 21:21:33 437.250
Oscar 11 31 Mar 21:25:14 21:29:16 39° 60° (ENE) 21:33:21 145.826/435.025
YUBILEINY 31 Mar 21:28:26 21:34:25 19° 12° (NNE) 21:40:28 435.215
AUBIESAT-1 31 Mar 21:29:17 21:33:52 43° 308° (NW) 21:38:25 437.475
GOMX 1 31 Mar 21:37:30 21:41:47 71° 255° (WSW) 21:45:58 467.674
DELFI C3 31 Mar 21:37:55 21:41:43 38° 61° (ENE) 21:45:34 145.870
GONETS M04 31 Mar 21:41:12 21:49:58 76° 290° (WNW) 21:58:49
CUSAT 1 31 Mar 21:41:31 21:43:34 21° 94° (E) 21:45:45 437.405
FUNcube-1 31 Mar 21:41:33 21:45:16 32° 58° (ENE) 21:49:04 145.935
PRISM 31 Mar 21:45:02 21:49:11 55° 295° (WNW) 21:53:15 437.425
CANX-2 31 Mar 21:47:31 21:51:46 63° 257° (WSW) 21:56:04 2200.000
MOZHAYETS 4 31 Mar 21:49:03 21:51:29 14° 321° (NW) 21:53:49
UWE-3 31 Mar 21:52:47 21:56:44 43° 63° (ENE) 22:00:47 435.000/436.395/437.385
ZACube-1 31 Mar 21:55:16 21:59:09 39° 61° (ENE) 22:03:09 437.345
CUBEBUG 1 31 Mar 21:55:26 21:58:04 16° 44° (NE) 22:00:48 437.445
M-CUBED/EXP-1 PRIME 31 Mar 21:56:19 22:00:33 31° 315° (NW) 22:04:46 437.505
PCSat 31 Mar 21:58:24 22:03:48 60° 24° (NNE) 22:09:13 145.827
CUTE 1.7 + AOD 2 31 Mar 22:01:09 22:05:20 53° 260° (W) 22:09:35 437.475
VELOX 1 31 Mar 22:02:09 22:05:49 26° 53° (NE) 22:09:31 145.980
CUBEBUG 2 31 Mar 22:03:27 22:07:33 58° 67° (ENE) 22:11:45 437.445
CUBESAT XI-V 31 Mar 22:05:36 22:09:54 37° 301° (WNW) 22:14:09 437.345
AISAT 31 Mar 22:07:54 22:11:40 28° 54° (NE) 22:15:30 437.250
CINEMA 3 31 Mar 22:09:53 22:14:03 84° 253° (WSW) 22:18:17 145.822/145.860
HO-68 31 Mar 22:10:34 22:17:34 52° 260° (W) 22:24:36 435.675
AAUSAT CUBESAT 2 31 Mar 22:15:01 22:19:11 59° 258° (WSW) 22:23:23 437.432
STRAND 1 31 Mar 22:20:37 22:25:37 52° 299° (WNW) 22:30:34 437.568
HUMSAT D 31 Mar 22:24:16 22:28:09 40° 62° (ENE) 22:32:06 437.325/437.525
SEEDS 31 Mar 22:26:35 22:30:36 39° 264° (W) 22:34:38 437.485
UKube-1 31 Mar 22:32:24 22:36:42 64° 66° (ENE) 22:41:01 .
50 SAT 31 Mar 22:38:42 22:42:22 38° 62° (ENE) 22:46:06 437.505
BRITE-PL 31 Mar 22:44:58 22:48:06 18° 273° (W) 22:51:03 437.365/2234.400
COMPASS 1 31 Mar 22:45:03 22:48:53 32° 266° (W) 22:52:44 437.405
DX 1 31 Mar 22:46:18 22:50:40 83° 70° (ENE) 22:55:03 434.975-435.025
ESTCUBE 1 31 Mar 22:46:26 22:50:30 33° 56° (ENE) 22:54:35 437.505/2401.250
SO-50 31 Mar 22:46:32 22:51:21 69° 341° (NNW) 22:56:18 436.795
DANDE 31 Mar 22:47:23 22:50:01 87° 110° (ESE) 22:52:44 436.750
DOVE 4 31 Mar 22:52:00 22:55:35 26° 268° (W) 22:59:07 437.250
Oscar 11 31 Mar 23:01:17 23:05:27 45° 262° (W) 23:09:40 145.826/435.025
AUBIESAT-1 31 Mar 23:04:35 23:07:45 18° 330° (NNW) 23:10:53 437.475
TISAT 1 31 Mar 23:08:37 23:11:23 18° 47° (NE) 23:14:14 437.305
DELFI C3 31 Mar 23:13:00 23:16:54 42° 262° (W) 23:20:51 145.870
RS-15 31 Mar 23:14:29 23:25:33 83° 338° (NNW) 23:37:04 29.354- 29.394
FUNcube-1 31 Mar 23:17:24 23:21:29 53° 259° (W) 23:25:39 145.935
GOMX 1 31 Mar 23:18:29 23:20:48 14° 277° (W) 23:22:59 467.674
PRISM 31 Mar 23:21:24 23:23:56 15° 316° (NW) 23:26:23 437.425
CUSAT 1 31 Mar 23:23:55 23:26:15 27° 299° (WNW) 23:28:46 437.405
CANX-2 31 Mar 23:26:30 23:28:39 13° 279° (W) 23:30:41 2200.000
YUBILEINY 31 Mar 23:26:57 23:34:46 33° 44° (NE) 23:42:36 435.215
SPROUT 31 Mar 23:28:27 23:31:56 25° 53° (NE) 23:35:27 437.525
CUBEBUG 1 31 Mar 23:29:24 23:33:43 56° 65° (ENE) 23:38:01 437.445
UWE-3 31 Mar 23:29:31 23:33:24 37° 264° (W) 23:37:21 435.000/436.395/437.385
ZACube-1 31 Mar 23:31:37 23:35:35 41° 263° (W) 23:39:37 437.345
M-CUBED/EXP-1 PRIME 31 Mar 23:31:43 23:34:16 14° 337° (NNW) 23:36:47 437.505
SWISSCUBE 31 Mar 23:37:06 23:39:31 14° 36° (NE) 23:42:01 437.505
VELOX 1 31 Mar 23:37:36 23:42:03 77° 254° (WSW) 23:46:31 145.980
BEESAT 31 Mar 23:39:37 23:41:59 14° 36° (NE) 23:44:26 436.000
GONETS M04 31 Mar 23:40:47 23:48:29 32° 317° (NW) 23:56:10
CUTE 1.7 + AOD 2 31 Mar 23:40:56 23:42:21 11° 282° (WNW) 23:43:36 437.475
CUBEBUG 2 31 Mar 23:41:01 23:44:36 27° 268° (W) 23:48:14 437.445
UNISAT 6 31 Mar 23:41:09 23:44:40 22° 88° (E) 23:48:18 437.425
PCSat 31 Mar 23:42:00 23:47:22 61° 228° (SW) 23:52:43 145.827
AISAT 31 Mar 23:43:36 23:48:01 69° 255° (WSW) 23:52:28 437.250
CUBESAT XI-V 31 Mar 23:44:13 23:46:16 13° 323° (NW) 23:48:15 437.345
QB50P1 31 Mar 23:46:15 23:48:24 14° 82° (E) 23:50:41 145.935-145.965
DUCHIFAT 1 31 Mar 23:46:29 23:48:34 14° 82° (E) 23:50:47 145.980
CINEMA 3 31 Mar 23:49:20 23:52:03 16° 276° (W) 23:54:41 145.822/145.860
TIGRISAT 31 Mar 23:49:59 23:53:40 24° 90° (E) 23:57:29 435.000
AAUSAT CUBESAT 2 31 Mar 23:53:59 23:55:48 12° 280° (W) 23:57:29 437.432
HUMSAT D 01 Apr 00:00:05 00:03:59 39° 263° (W) 00:07:56 437.325/437.525
STRAND 1 01 Apr 00:00:28 00:03:55 18° 321° (NW) 00:07:18 437.568
QB50P2 01 Apr 00:01:37 00:04:32 18° 86° (E) 00:07:33 145.880/145.840
HO-68 01 Apr 00:02:54 00:07:15 16° 285° (WNW) 00:11:21 435.675
UKube-1 01 Apr 00:09:30 00:13:13 27° 268° (W) 00:16:56 .
50 SAT 01 Apr 00:13:36 00:17:19 39° 263° (W) 00:21:05 437.505
BUGSAT 1 01 Apr 00:13:57 00:16:31 16° 86° (E) 00:19:10 437.445
ANTELSAT 01 Apr 00:21:33 00:25:52 40° 97° (E) 00:30:16 437.575/2403.000
ESTCUBE 1 01 Apr 00:22:42 00:27:13 59° 258° (WSW) 00:31:45 437.505/2401.250
DX 1 01 Apr 00:24:08 00:27:30 21° 271° (W) 00:30:48 434.975-435.025
ITUPSAT 1 01 Apr 00:26:30 00:30:09 22° 47° (NE) 00:33:52 437.325
SO-50 01 Apr 00:27:35 00:32:24 57° 5° (N) 00:37:19 436.795
POPSAT HIP 1 01 Apr 00:29:22 00:33:01 28° 92° (E) 00:36:42 437.405
DANDE 01 Apr 00:33:38 00:33:57 10° 313° (NW) 00:34:12 436.750
NANOSAT C BR1 01 Apr 00:38:41 00:42:30 32° 95° (E) 00:46:20 145.865
AUBIESAT-1 01 Apr 00:39:52 00:41:01 11° 352° (N) 00:42:10 437.475
KKS-1 01 Apr 00:40:02 00:41:03 11° 34° (NNE) 00:42:09 437.445
TISAT 1 01 Apr 00:42:24 00:46:35 68° 68° (ENE) 00:50:47 437.305
POLYITAN 1 01 Apr 00:45:31 00:49:28 36° 96° (E) 00:53:26 437.675
FUNcube-1 01 Apr 00:57:50 00:58:57 11° 282° (WNW) 00:59:52 145.935
SPROUT 01 Apr 01:03:22 01:07:40 78° 254° (WSW) 01:11:59 437.525
STARS 01 Apr 01:04:48 01:06:07 11° 35° (NE) 01:07:32 437.465
CUBEBUG 1 01 Apr 01:06:24 01:10:21 31° 266° (W) 01:14:15 437.445
M-CUBED/EXP-1 PRIME 01 Apr 01:06:39 01:07:28 10° 360° (N) 01:08:18 437.505
SWISSCUBE 01 Apr 01:11:52 01:16:20 39° 58° (ENE) 01:20:50 437.505
ISS 01 Apr 01:12:34 01:14:17 14° 165° (SSE) 01:16:01 145.825
BEESAT 01 Apr 01:14:20 01:18:46 39° 58° (ENE) 01:23:15 436.000
VELOX 1 01 Apr 01:16:29 01:19:25 17° 275° (W) 01:22:15 145.980
UNISAT 6 01 Apr 01:17:29 01:22:03 84° 288° (WNW) 01:26:42 437.425
QB50P1 01 Apr 01:20:56 01:25:11 67° 105° (ESE) 01:29:24 145.935-145.965
DUCHIFAT 1 01 Apr 01:21:05 01:25:18 66° 104° (ESE) 01:29:30 145.980
AISAT 01 Apr 01:22:55 01:25:32 15° 277° (W) 01:28:01 437.250
YUBILEINY 01 Apr 01:24:15 01:33:11 78° 72° (ENE) 01:42:01 435.215
PCSat 01 Apr 01:26:13 01:29:56 19° 249° (WSW) 01:33:31 145.827
TIGRISAT 01 Apr 01:26:22 01:30:55 75° 291° (WNW) 01:35:32 435.000
RS-15 01 Apr 01:27:43 01:38:53 75° 9° (N) 01:50:34 29.354- 29.394
QB50P2 01 Apr 01:36:50 01:41:07 88° 107° (ESE) 01:45:23 145.880/145.840
Oscar 19 01 Apr 01:42:56 01:44:21 11° 75° (ENE) 01:46:02 437.125/150
GONETS M04 01 Apr 01:42:57 01:48:53 19° 349° (N) 01:54:47
BUGSAT 1 01 Apr 01:48:37 01:52:42 85° 107° (ESE) 01:56:45 437.445
ANTELSAT 01 Apr 01:58:24 02:02:46 46° 298° (WNW) 02:07:11 437.575/2403.000
ITUPSAT 1 01 Apr 02:02:38 02:07:28 75° 67° (ENE) 02:12:19 437.325
ESTCUBE 1 01 Apr 02:02:51 02:05:08 13° 280° (W) 02:07:16 437.505/2401.250
POPSAT HIP 1 01 Apr 02:05:03 02:09:14 59° 294° (WNW) 02:13:23 437.405
SO-50 01 Apr 02:08:22 02:13:20 87° 28° (NNE) 02:18:19 436.795
AUBIESAT-1 01 Apr 02:12:25 02:14:05 12° 15° (NNE) 02:15:50 437.475
KKS-1 01 Apr 02:12:39 02:16:32 31° 56° (NE) 02:20:28 437.445
NANOSAT C BR1 01 Apr 02:14:27 02:18:34 50° 296° (WNW) 02:22:40 145.865
TISAT 1 01 Apr 02:19:19 02:22:48 24° 269° (W) 02:26:15 437.305
POLYITAN 1 01 Apr 02:21:27 02:25:31 45° 297° (WNW) 02:29:35 437.675
MOZHAYETS 4 01 Apr 02:35:47 02:37:03 11° 34° (NNE) 02:38:26
STARS 01 Apr 02:37:34 02:41:30 33° 57° (ENE) 02:45:29 437.465
M-CUBED/EXP-1 PRIME 01 Apr 02:38:20 02:40:40 14° 22° (NNE) 02:43:07 437.505
SPROUT 01 Apr 02:41:45 02:44:32 16° 276° (W) 02:47:12 437.525
ISS 01 Apr 02:47:43 02:49:50 16° 184° (S) 02:51:57 145.825
SWISSCUBE 01 Apr 02:49:26 02:54:09 52° 259° (W) 02:58:53 437.505
BEESAT 01 Apr 02:51:51 02:56:34 53° 259° (WSW) 03:01:18 436.000
ITAMSAT 1 01 Apr 02:54:02 02:56:52 15° 80° (E) 02:59:51 435.822/435.867
UNISAT 6 01 Apr 02:54:49 02:58:22 23° 310° (NW) 03:01:54 437.425
QB50P1 01 Apr 02:57:11 03:00:48 27° 305° (NW) 03:04:22 145.935-145.965
DUCHIFAT 1 01 Apr 02:57:17 03:00:53 27° 305° (NW) 03:04:27 145.980
TIGRISAT 01 Apr 03:03:46 03:07:07 21° 312° (NW) 03:10:28 435.000
QB50P2 01 Apr 03:13:17 03:16:35 22° 309° (NW) 03:19:52 145.880/145.840
Oscar 19 01 Apr 03:20:12 03:25:11 46° 98° (E) 03:30:11 437.125/150
YUBILEINY 01 Apr 03:21:29 03:29:30 40° 277° (W) 03:37:23 435.215
BUGSAT 1 01 Apr 03:24:39 03:27:47 22° 308° (NW) 03:30:51 437.445
JAS-2 01 Apr 03:30:52 03:31:52 10° 59° (ENE) 03:33:15 435.910
ANTELSAT 01 Apr 03:36:10 03:38:40 15° 319° (NW) 03:41:07 437.575/2403.000
RS-15 01 Apr 03:40:32 03:51:47 79° 219° (SW) 04:03:32 29.354- 29.394
POPSAT HIP 1 01 Apr 03:41:47 03:44:25 16° 315° (NW) 03:46:59 437.405
ITUPSAT 1 01 Apr 03:41:48 03:45:53 26° 270° (W) 03:49:55 437.325
GONETS M04 01 Apr 03:43:32 03:49:53 21° 22° (NNE) 03:56:22
AUBIESAT-1 01 Apr 03:44:03 03:47:31 22° 37° (NE) 03:51:10 437.475
KKS-1 01 Apr 03:48:35 03:52:59 62° 257° (WSW) 03:57:26 437.445
SO-50 01 Apr 03:49:05 03:53:37 36° 230° (SW) 03:58:06 436.795
NANOSAT C BR1 01 Apr 03:51:18 03:53:38 14° 317° (NW) 03:55:55 145.865
POLYITAN 1 01 Apr 03:58:29 04:00:35 13° 319° (NW) 04:02:36 437.675
Gurwin Techsat 1B 01 Apr 03:59:33 04:04:23 34° 93° (E) 04:09:13 435.225
HORYU 2 01 Apr 04:08:12 04:10:06 13° 80° (E) 04:12:10 437.375
MOZHAYETS 4 01 Apr 04:09:00 04:13:05 31° 55° (NE) 04:17:12
M-CUBED/EXP-1 PRIME 01 Apr 04:10:29 04:14:22 30° 44° (NE) 04:18:31 437.505
STARS 01 Apr 04:13:32 04:17:51 54° 258° (WSW) 04:22:12 437.465
ISS 01 Apr 04:24:52 04:25:19 10° 204° (SSW) 04:25:42 145.825
CUBESAT XI-V 01 Apr 04:30:38 04:32:28 12° 36° (NE) 04:34:25 437.345
SWISSCUBE 01 Apr 04:31:14 04:33:15 12° 282° (WNW) 04:35:04 437.505
ITAMSAT 1 01 Apr 04:32:25 04:37:34 59° 102° (ESE) 04:42:42 435.822/435.867
BEESAT 01 Apr 04:33:33 04:35:38 12° 282° (WNW) 04:37:32 436.000
AIST 1 01 Apr 04:50:28 04:54:29 36° 93° (E) 04:58:32
STRAND 1 01 Apr 04:52:47 04:55:36 15° 34° (NE) 04:58:29 437.568
Oscar 19 01 Apr 04:59:40 05:04:39 48° 300° (WNW) 05:09:36 437.125/150
JAS-2 01 Apr 05:12:49 05:19:47 34° 85° (E) 05:26:27 435.910
O/OREOS (USA 219) 01 Apr 05:16:57 05:21:14 40° 115° (ESE) 05:25:34 437.305
AUBIESAT-1 01 Apr 05:17:18 05:21:40 66° 58° (ENE) 05:26:23 437.475
YUBILEINY 01 Apr 05:20:00 05:23:51 13° 303° (WNW) 05:27:20 435.215
AO-7 01 Apr 05:20:08 05:27:30 34° 91° (E) 05:34:56 29.400- 29.500
KKS-1 01 Apr 05:28:22 05:30:38 13° 279° (W) 05:32:45 437.445
PRISM 01 Apr 05:35:38 05:38:45 21° 50° (NE) 05:41:57 437.425
Gurwin Techsat 1B 01 Apr 05:39:28 05:44:46 65° 295° (WNW) 05:50:02 435.225
GONETS M04 01 Apr 05:41:30 05:49:46 42° 52° (NE) 05:58:04
HORYU 2 01 Apr 05:43:21 05:47:49 57° 102° (ESE) 05:52:17 437.375
M-CUBED/EXP-1 PRIME 01 Apr 05:44:31 05:48:54 78° 247° (WSW) 05:53:39 437.505
MOZHAYETS 4 01 Apr 05:45:26 05:50:04 66° 256° (WSW) 05:54:45
RS-15 01 Apr 05:52:55 06:02:58 38° 246° (WSW) 06:13:14 29.354- 29.394
STARS 01 Apr 05:53:43 05:55:24 12° 280° (W) 05:56:55 437.465
CUBESAT XI-V 01 Apr 06:04:33 06:08:48 35° 58° (ENE) 06:13:06 437.345
ITAMSAT 1 01 Apr 06:12:10 06:16:58 39° 305° (NW) 06:21:44 435.822/435.867
CUSAT 1 01 Apr 06:23:03 06:25:24 16° 52° (NE) 06:28:12 437.405
AIST 1 01 Apr 06:27:54 06:32:08 44° 294° (WNW) 06:36:22
STRAND 1 01 Apr 06:28:55 06:33:41 40° 57° (ENE) 06:38:29 437.568
Oscar 19 01 Apr 06:39:43 06:43:02 17° 322° (NW) 06:46:16 437.125/150
AUBIESAT-1 01 Apr 06:53:00 06:56:52 29° 261° (W) 07:00:58 437.475
O/OREOS (USA 219) 01 Apr 06:56:04 07:00:37 55° 317° (NW) 07:05:10 437.305
JAS-2 01 Apr 06:57:50 07:05:47 88° 284° (WNW) 07:13:14 435.910
PRISM 01 Apr 07:09:30 07:13:46 83° 69° (ENE) 07:18:01 437.425
AO-7 01 Apr 07:13:02 07:21:25 90° 300° (WNW) 07:29:45 29.400- 29.500
CUTE-I 01 Apr 07:16:52 07:20:57 22° 86° (E) 07:25:08 437.470
Cubesat XI-IV 01 Apr 07:18:00 07:22:09 23° 86° (E) 07:26:22 437.490
Gurwin Techsat 1B 01 Apr 07:19:59 07:24:00 22° 317° (NW) 07:27:56 435.225
HORYU 2 01 Apr 07:20:16 07:24:20 34° 303° (WNW) 07:28:24 437.375
M-CUBED/EXP-1 PRIME 01 Apr 07:21:30 07:24:37 18° 269° (W) 07:27:46 437.505
MOZHAYETS 4 01 Apr 07:25:32 07:28:17 15° 279° (W) 07:30:55
DANDE 01 Apr 07:31:39 07:34:50 32° 63° (ENE) 07:38:57 436.750
GONETS M04 01 Apr 07:38:43 07:47:35 82° 259° (W) 07:56:27
CUBESAT XI-V 01 Apr 07:41:30 07:46:09 56° 259° (W) 07:50:48 437.345
ITAMSAT 1 01 Apr 07:52:26 07:55:20 15° 327° (NNW) 07:58:08 435.822/435.867
CUSAT 1 01 Apr 08:04:54 08:08:42 71° 71° (ENE) 08:13:46 437.405
STRAND 1 01 Apr 08:07:44 08:12:50 56° 258° (WSW) 08:17:55 437.568
RS-15 01 Apr 08:08:25 08:11:57 11° 272° (W) 08:14:43 29.354- 29.394
AIST 1 01 Apr 08:08:59 08:11:01 13° 318° (NW) 08:12:57
O/OREOS (USA 219) 01 Apr 08:37:06 08:40:56 25° 341° (NNW) 08:44:46 437.305
JAS-2 01 Apr 08:43:04 08:50:10 38° 313° (NW) 08:56:54 435.910
PRISM 01 Apr 08:46:36 08:49:48 20° 272° (W) 08:52:57 437.425
CUTE-I 01 Apr 08:56:29 09:01:52 85° 107° (ESE) 09:07:14 437.470
Cubesat XI-IV 01 Apr 08:57:40 09:03:04 87° 105° (ESE) 09:08:26 437.490
HORYU 2 01 Apr 08:58:15 08:59:54 12° 325° (NW) 09:01:27 437.375
BRITE-PL 01 Apr 08:59:41 09:01:29 13° 81° (E) 09:03:28 437.365/2234.400
Gurwin Techsat 1B 01 Apr 09:01:28 09:02:17 10° 341° (NNW) 09:03:01 435.225
AO-7 01 Apr 09:06:03 09:13:40 42° 321° (NW) 09:21:13 29.400- 29.500
DANDE 01 Apr 09:14:44 09:18:12 43° 259° (W) 09:22:44 436.750
UNISAT 6 01 Apr 09:15:28 09:18:13 17° 44° (NE) 09:21:04 437.425
QB50P1 01 Apr 09:15:47 09:17:12 12° 39° (NE) 09:18:42 145.935-145.965
DUCHIFAT 1 01 Apr 09:15:48 09:17:07 11° 38° (NE) 09:18:32 145.980
CUBESAT XI-V 01 Apr 09:22:29 09:24:43 13° 282° (WNW) 09:26:48 437.345
CANX-2 01 Apr 09:23:45 09:25:59 14° 81° (E) 09:28:22 2200.000
TIGRISAT 01 Apr 09:23:54 09:26:49 18° 46° (NE) 09:29:51 435.000
GOMX 1 01 Apr 09:29:11 09:31:47 16° 84° (E) 09:34:34 467.674
QB50P2 01 Apr 09:30:51 09:33:01 14° 42° (NE) 09:35:15 145.880/145.840
